Location: Bettgenhausen
(50.6463°N, 7.5681°E)
Time: 06:46:03
(UTC+00:00)

Cosmos 1939 Rocket - Pass Details

Date: 27 February 2020
Orbit: 532 x 585 km, 97.4° (Epoch: 09 April)

Event Time Altitude Azimuth Distance (km) Brightness Sun altitude
Rises 17:29:32 0° 149° (SSE) 2,800 6.2 -4.4°
Reaches altitude 10° 17:31:43 10° 144° (SE) 1,907 5.3 -4.7°
Maximum altitude 17:35:42 47° 71° (ENE) 780 3.2 -5.4°
Drops below altitude 10° 17:39:42 10° 357° (N) 1,917 5.6 -6.0°
Sets 17:41:55 0° 352° (N) 2,817 6.5 -6.4°
